Time,TemperatureF,DewpointF,PressureIn,WindDirection,WindDirectionDegrees,WindSpeedMPH,WindSpeedGustMPH,Humidity,HourlyPrecipIn,Conditions,Clouds,dailyrainin,SoftwareType,DateUTC
2013-09-16 00:00:00,76.6,58.2,29.26,South,174,2.0,3.6,52,-99.99,,,-99.99,WSDL version 426,2013-09-16 05:00:00,
2013-09-16 00:05:00,76.4,57.3,29.26,SSE,158,1.1,3.6,51,-99.99,,,-99.99,WSDL version 426,2013-09-16 05:05:00,
2013-09-16 00:10:00,76.1,56.7,29.26,SSE,158,1.6,2.7,51,-99.99,,,-99.99,WSDL version 426,2013-09-16 05:10:00,
2013-09-16 00:15:00,76.0,56.5,29.26,South,173,2.1,2.7,51,-99.99,,,-99.99,WSDL version 426,2013-09-16 05:15:00,
2013-09-16 00:20:00,76.3,58.1,29.26,South,178,1.3,2.7,53,-99.99,,,-99.99,WSDL version 426,2013-09-16 05:20:00,
2013-09-16 00:25:00,76.6,57.9,29.26,SSE,158,1.2,2.7,52,-99.99,,,-99.99,WSDL version 426,2013-09-16 05:25:00,
2013-09-16 00:30:00,76.2,57.3,29.26,SSE,158,1.3,2.5,52,-99.99,,,-99.99,WSDL version 426,2013-09-16 05:30:00,
2013-09-16 00:36:00,75.7,56.9,29.26,SE,135,1.4,2.9,52,-99.99,,,-99.99,WSDL version 426,2013-09-16 05:36:00,
2013-09-16 00:41:00,75.6,57.5,29.26,South,185,1.5,2.9,55,-99.99,,,-99.99,WSDL version 426,2013-09-16 05:41:00,
2013-09-16 00:46:00,76.2,58.3,29.26,SSE,158,1.1,2.5,53,-99.99,,,-99.99,WSDL version 426,2013-09-16 05:46:00,
2013-09-16 00:51:00,76.0,57.4,29.26,SE,143,1.5,2.5,53,-99.99,,,-99.99,WSDL version 426,2013-09-16 05:51:00,
2013-09-16 00:56:00,75.5,57.1,29.26,SE,143,1.3,2.5,53,-99.99,,,-99.99,WSDL version 426,2013-09-16 05:56:00,
2013-09-16 01:01:00,75.1,57.0,29.23,SSE,148,0.4,2.9,54,-99.99,,,-99.99,WSDL version 426,2013-09-16 06:01:00,
2013-09-16 01:06:00,75.1,57.9,29.23,SSE,160,1.1,2.9,56,-99.99,,,-99.99,WSDL version 426,2013-09-16 06:06:00,
2013-09-16 01:11:00,75.8,58.5,29.23,SSE,163,0.9,2.5,54,-99.99,,,-99.99,WSDL version 426,2013-09-16 06:11:00,
2013-09-16 01:16:00,75.8,57.5,29.26,SE,135,1.1,2.5,53,-99.99,,,-99.99,WSDL version 426,2013-09-16 06:16:00,
2013-09-16 01:21:00,75.4,57.1,29.26,SSE,158,1.1,2.7,53,-99.99,,,-99.99,WSDL version 426,2013-09-16 06:21:00,
2013-09-16 01:26:00,75.1,56.8,29.26,SSE,158,1.8,2.9,53,-99.99,,,-99.99,WSDL version 426,2013-09-16 06:26:00,
2013-09-16 01:31:00,74.9,56.8,29.26,SSE,152,1.5,2.9,54,-99.99,,,-99.99,WSDL version 426,2013-09-16 06:31:00,
2013-09-16 01:36:00,75.0,57.8,29.26,South,170,1.6,3.4,56,-99.99,,,-99.99,WSDL version 426,2013-09-16 06:36:00,
2013-09-16 01:41:00,75.5,58.1,29.26,SSE,155,1.6,4.3,54,-99.99,,,-99.99,WSDL version 426,2013-09-16 06:41:00,
2013-09-16 01:46:00,75.2,57.5,29.26,SSE,158,1.3,4.3,54,-99.99,,,-99.99,WSDL version 426,2013-09-16 06:46:00,
2013-09-16 01:51:00,75.0,57.4,29.26,South,188,1.3,3.6,54,-99.99,,,-99.99,WSDL version 426,2013-09-16 06:51:00,
2013-09-16 01:56:00,75.0,57.3,29.26,SSE,163,1.6,3.6,54,-99.99,,,-99.99,WSDL version 426,2013-09-16 06:56:00,
2013-09-16 02:01:00,74.9,57.2,29.26,SSE,158,1.4,2.7,54,-99.99,,,-99.99,WSDL version 426,2013-09-16 07:01:00,
2013-09-16 02:06:00,74.9,57.4,29.26,South,178,2.1,2.9,56,-99.99,,,-99.99,WSDL version 426,2013-09-16 07:06:00,
2013-09-16 02:11:00,75.3,58.4,29.26,South,175,2.1,3.6,55,-99.99,,,-99.99,WSDL version 426,2013-09-16 07:11:00,
2013-09-16 02:16:00,75.5,57.9,29.26,SSE,158,0.3,3.6,54,-99.99,,,-99.99,WSDL version 426,2013-09-16 07:16:00,
2013-09-16 02:21:00,75.2,57.4,29.26,SSE,158,0.5,2.7,54,-99.99,,,-99.99,WSDL version 426,2013-09-16 07:21:00,
2013-09-16 02:26:00,74.9,57.1,29.26,SSE,158,1.0,2.0,54,-99.99,,,-99.99,WSDL version 426,2013-09-16 07:26:00,
2013-09-16 02:31:00,74.6,57.0,29.26,ESE,121,1.1,2.2,55,-99.99,,,-99.99,WSDL version 426,2013-09-16 07:31:00,
2013-09-16 02:36:00,74.3,57.1,29.26,ESE,113,1.4,2.2,55,-99.99,,,-99.99,WSDL version 426,2013-09-16 07:36:00,
2013-09-16 02:41:00,74.0,57.6,29.26,ESE,113,1.2,2.0,59,-99.99,,,-99.99,WSDL version 426,2013-09-16 07:41:00,
2013-09-16 02:46:00,74.5,59.0,29.26,East,90,1.3,2.5,58,-99.99,,,-99.99,WSDL version 426,2013-09-16 07:46:00,
2013-09-16 02:51:00,74.4,58.1,29.26,ENE,68,1.8,2.5,56,-99.99,,,-99.99,WSDL version 426,2013-09-16 07:51:00,
2013-09-16 02:56:00,74.0,57.6,29.26,NE,43,2.7,4.3,57,-99.99,,,-99.99,WSDL version 426,2013-09-16 07:56:00,
2013-09-16 03:01:00,73.8,58.0,29.26,NNE,14,3.6,4.3,58,-99.99,,,-99.99,WSDL version 426,2013-09-16 08:01:00,
2013-09-16 03:06:00,73.7,57.9,29.26,NE,55,2.9,4.7,58,-99.99,,,-99.99,WSDL version 426,2013-09-16 08:06:00,
2013-09-16 03:11:00,73.6,58.3,29.26,NE,40,2.6,4.7,59,-99.99,,,-99.99,WSDL version 426,2013-09-16 08:11:00,
2013-09-16 03:16:00,73.6,58.6,29.26,NE,39,0.0,3.4,61,-99.99,,,-99.99,WSDL version 426,2013-09-16 08:16:00,
2013-09-16 03:21:00,74.2,59.6,29.26,SSE,165,0.5,2.5,60,-99.99,,,-99.99,WSDL version 426,2013-09-16 08:21:00,
2013-09-16 03:26:00,74.2,59.0,29.26,SSW,203,0.0,3.1,59,-99.99,,,-99.99,WSDL version 426,2013-09-16 08:26:00,
2013-09-16 03:31:00,73.9,58.6,29.26,SE,135,0.8,3.1,59,-99.99,,,-99.99,WSDL version 426,2013-09-16 08:31:00,
2013-09-16 03:36:00,73.7,58.5,29.26,ENE,76,2.2,3.1,60,-99.99,,,-99.99,WSDL version 426,2013-09-16 08:36:00,
2013-09-16 03:41:00,73.6,58.9,29.26,NE,39,2.3,3.6,60,-99.99,,,-99.99,WSDL version 426,2013-09-16 08:41:00,
2013-09-16 03:46:00,73.6,59.0,29.29,ENE,63,3.9,6.3,61,-99.99,,,-99.99,WSDL version 426,2013-09-16 08:46:00,
2013-09-16 03:51:00,73.7,59.5,29.29,NE,42,4.1,6.3,62,-99.99,,,-99.99,WSDL version 426,2013-09-16 08:51:00,
2013-09-16 03:56:00,74.4,60.4,29.29,NE,40,2.9,6.3,61,-99.99,,,-99.99,WSDL version 426,2013-09-16 08:56:00,
2013-09-16 04:01:00,74.6,59.9,29.29,NE,34,3.2,5.6,60,-99.99,,,-99.99,WSDL version 426,2013-09-16 09:01:00,
2013-09-16 04:06:00,74.4,59.7,29.29,NNE,23,2.6,4.3,60,-99.99,,,-99.99,WSDL version 426,2013-09-16 09:06:00,
2013-09-16 04:11:00,74.3,59.6,29.29,North,354,3.3,6.0,61,-99.99,,,-99.99,WSDL version 426,2013-09-16 09:11:00,
2013-09-16 04:16:00,74.5,60.2,29.29,NNE,23,6.4,8.9,61,-99.99,,,-99.99,WSDL version 426,2013-09-16 09:16:00,
2013-09-16 04:21:00,75.0,60.4,29.29,NNE,13,8.7,12.1,60,-99.99,,,-99.99,WSDL version 426,2013-09-16 09:21:00,
2013-09-16 04:26:00,75.4,60.0,29.29,NE,37,5.0,12.1,58,-99.99,,,-99.99,WSDL version 426,2013-09-16 09:26:00,
2013-09-16 04:31:00,76.0,59.8,29.29,NNW,330,3.9,8.5,56,-99.99,,,-99.99,WSDL version 426,2013-09-16 09:31:00,
2013-09-16 04:36:00,76.2,59.3,29.29,NW,307,4.1,7.8,56,-99.99,,,-99.99,WSDL version 426,2013-09-16 09:36:00,
2013-09-16 04:41:00,75.9,59.1,29.29,North,349,4.4,8.5,56,-99.99,,,-99.99,WSDL version 426,2013-09-16 09:41:00,
2013-09-16 04:46:00,75.7,58.7,29.29,North,5,5.4,8.9,56,-99.99,,,-99.99,WSDL version 426,2013-09-16 09:46:00,
2013-09-16 04:51:00,75.5,58.7,29.29,North,11,4.3,8.9,56,-99.99,,,-99.99,WSDL version 426,2013-09-16 09:51:00,
2013-09-16 04:56:00,75.3,58.7,29.29,NNE,15,5.1,9.6,57,-99.99,,,-99.99,WSDL version 426,2013-09-16 09:56:00,
2013-09-16 05:01:00,75.1,58.9,29.32,NNW,340,3.9,9.6,57,-99.99,,,-99.99,WSDL version 426,2013-09-16 10:01:00,
2013-09-16 05:06:00,75.7,58.9,29.32,NNW,330,4.0,8.5,56,-99.99,,,-99.99,WSDL version 426,2013-09-16 10:06:00,
2013-09-16 05:11:00,75.6,58.3,29.32,NW,326,4.2,6.5,55,-99.99,,,-99.99,WSDL version 426,2013-09-16 10:11:00,
2013-09-16 05:16:00,75.1,58.4,29.29,NNW,335,2.4,6.5,56,-99.99,,,-99.99,WSDL version 426,2013-09-16 10:16:00,
2013-09-16 05:21:00,74.8,58.4,29.29,North,353,2.8,5.6,57,-99.99,,,-99.99,WSDL version 426,2013-09-16 10:21:00,
2013-09-16 05:26:00,74.7,58.5,29.29,NNW,340,2.5,4.9,57,-99.99,,,-99.99,WSDL version 426,2013-09-16 10:26:00,
2013-09-16 05:31:00,74.5,58.3,29.29,NNW,340,2.9,4.3,58,-99.99,,,-99.99,WSDL version 426,2013-09-16 10:31:00,
2013-09-16 05:36:00,74.5,58.8,29.29,North,8,2.7,5.4,58,-99.99,,,-99.99,WSDL version 426,2013-09-16 10:36:00,
2013-09-16 05:41:00,74.3,58.8,29.29,NNE,15,3.8,5.6,59,-99.99,,,-99.99,WSDL version 426,2013-09-16 10:41:00,
2013-09-16 05:46:00,74.1,59.0,29.32,NNW,329,3.7,6.3,60,-99.99,,,-99.99,WSDL version 426,2013-09-16 10:46:00,
2013-09-16 05:51:00,74.0,59.2,29.32,NNW,345,3.4,6.3,60,-99.99,,,-99.99,WSDL version 426,2013-09-16 10:51:00,
2013-09-16 05:56:00,73.9,59.2,29.32,NNE,15,3.7,7.2,60,-99.99,,,-99.99,WSDL version 426,2013-09-16 10:56:00,
2013-09-16 06:01:00,73.8,59.4,29.32,North,354,4.9,7.8,61,-99.99,,,-99.99,WSDL version 426,2013-09-16 11:01:00,
2013-09-16 06:06:00,73.8,59.5,29.32,NNE,25,5.5,8.7,61,-99.99,,,-99.99,WSDL version 426,2013-09-16 11:06:00,
2013-09-16 06:11:00,73.7,59.9,29.32,NE,34,4.8,9.8,62,-99.99,,,-99.99,WSDL version 426,2013-09-16 11:11:00,
2013-09-16 06:16:00,73.6,60.1,29.32,NE,38,6.4,11.4,63,-99.99,,,-99.99,WSDL version 426,2013-09-16 11:16:00,
2013-09-16 06:21:00,73.6,60.2,29.32,NE,34,9.1,14.5,63,-99.99,,,-99.99,WSDL version 426,2013-09-16 11:21:00,
2013-09-16 06:26:00,73.6,60.2,29.32,NNE,20,5.8,14.5,63,-99.99,,,-99.99,WSDL version 426,2013-09-16 11:26:00,
2013-09-16 06:31:00,73.6,60.7,29.32,NNE,25,6.6,10.5,65,-99.99,,,-99.99,WSDL version 426,2013-09-16 11:31:00,
2013-09-16 06:36:00,73.4,60.8,29.32,NE,48,6.0,10.5,65,-99.99,,,-99.99,WSDL version 426,2013-09-16 11:36:00,
2013-09-16 06:41:00,73.4,61.0,29.32,NE,50,6.6,10.5,66,-99.99,,,-99.99,WSDL version 426,2013-09-16 11:41:00,
2013-09-16 06:46:00,73.2,61.3,29.32,NE,45,7.3,10.7,67,-99.99,,,-99.99,WSDL version 426,2013-09-16 11:46:00,
2013-09-16 06:51:00,73.2,61.6,29.32,NE,40,4.5,11.9,67,-99.99,,,-99.99,WSDL version 426,2013-09-16 11:51:00,
2013-09-16 06:56:00,73.1,61.5,29.32,NE,56,3.3,11.9,67,-99.99,,,-99.99,WSDL version 426,2013-09-16 11:56:00,
2013-09-16 07:01:00,73.0,61.4,29.35,NE,53,4.8,6.7,67,-99.99,,,-99.99,WSDL version 426,2013-09-16 12:01:00,
2013-09-16 07:06:00,73.0,61.4,29.35,ENE,68,4.1,6.5,67,-99.99,,,-99.99,WSDL version 426,2013-09-16 12:06:00,
2013-09-16 07:11:00,73.0,61.8,29.35,ENE,73,5.8,8.5,68,-99.99,,,-99.99,WSDL version 426,2013-09-16 12:11:00,
2013-09-16 07:16:00,72.9,62.0,29.35,ENE,73,4.9,10.5,68,-99.99,,,-99.99,WSDL version 426,2013-09-16 12:16:00,
2013-09-16 07:21:00,72.9,61.8,29.35,NE,34,4.7,10.5,68,-99.99,,,-99.99,WSDL version 426,2013-09-16 12:21:00,
2013-09-16 07:26:00,72.9,61.7,29.35,NE,43,1.9,8.7,68,-99.99,,,-99.99,WSDL version 426,2013-09-16 12:26:00,
2013-09-16 07:31:00,72.9,61.9,29.38,NNE,28,3.6,6.7,68,-99.99,,,-99.99,WSDL version 426,2013-09-16 12:31:00,
2013-09-16 07:36:00,72.9,61.7,29.38,NNE,20,2.3,5.6,68,-99.99,,,-99.99,WSDL version 426,2013-09-16 12:36:00,
2013-09-16 07:41:00,72.9,61.7,29.38,NE,43,2.7,3.8,68,-99.99,,,-99.99,WSDL version 426,2013-09-16 12:41:00,
2013-09-16 07:46:00,72.9,61.9,29.38,ENE,68,5.5,7.8,69,-99.99,,,-99.99,WSDL version 426,2013-09-16 12:46:00,
2013-09-16 07:51:00,73.0,62.3,29.38,ESE,118,3.9,7.8,69,-99.99,,,-99.99,WSDL version 426,2013-09-16 12:51:00,
2013-09-16 07:56:00,73.0,62.3,29.38,East,90,3.8,7.2,69,-99.99,,,-99.99,WSDL version 426,2013-09-16 12:56:00,
2013-09-16 08:01:00,73.0,62.4,29.35,East,95,4.2,7.8,70,-99.99,,,-99.99,WSDL version 426,2013-09-16 13:01:00,
2013-09-16 08:06:00,73.2,62.6,29.35,East,82,3.2,7.8,69,-99.99,,,-99.99,WSDL version 426,2013-09-16 13:06:00,
2013-09-16 08:11:00,73.3,62.7,29.35,ENE,58,3.8,8.7,69,-99.99,,,-99.99,WSDL version 426,2013-09-16 13:11:00,
2013-09-16 08:16:00,73.5,62.5,29.38,NE,48,5.8,10.1,68,-99.99,,,-99.99,WSDL version 426,2013-09-16 13:16:00,
2013-09-16 08:21:00,73.6,62.3,29.38,NE,39,5.0,10.1,67,-99.99,,,-99.99,WSDL version 426,2013-09-16 13:21:00,
2013-09-16 08:26:00,73.8,62.1,29.38,NNE,28,3.6,8.5,67,-99.99,,,-99.99,WSDL version 426,2013-09-16 13:26:00,
2013-09-16 08:31:00,73.9,62.3,29.38,NE,42,4.4,8.5,67,-99.99,,,-99.99,WSDL version 426,2013-09-16 13:31:00,
2013-09-16 08:36:00,73.9,62.2,29.38,NE,53,5.4,7.8,66,-99.99,,,-99.99,WSDL version 426,2013-09-16 13:36:00,
2013-09-16 08:41:00,73.9,61.9,29.38,NE,48,3.9,7.8,66,-99.99,,,-99.99,WSDL version 426,2013-09-16 13:41:00,
2013-09-16 08:46:00,74.1,62.3,29.38,NE,40,3.0,6.3,67,-99.99,,,-99.99,WSDL version 426,2013-09-16 13:46:00,
2013-09-16 08:51:00,74.1,62.3,29.38,NE,40,3.9,6.3,67,-99.99,,,-99.99,WSDL version 426,2013-09-16 13:51:00,
2013-09-16 08:56:00,74.0,62.3,29.38,North,3,3.4,6.5,67,-99.99,,,-99.99,WSDL version 426,2013-09-16 13:56:00,
2013-09-16 09:01:00,73.9,62.3,29.41,North,360,4.0,6.5,67,-99.99,,,-99.99,WSDL version 426,2013-09-16 14:01:00,
2013-09-16 09:06:00,74.0,62.4,29.41,NNE,25,2.8,6.0,67,-99.99,,,-99.99,WSDL version 426,2013-09-16 14:06:00,
2013-09-16 09:11:00,74.2,62.2,29.41,NNE,28,4.2,8.5,65,-99.99,,,-99.99,WSDL version 426,2013-09-16 14:11:00,
2013-09-16 09:16:00,74.5,62.0,29.38,NNE,25,3.3,8.5,65,-99.99,,,-99.99,WSDL version 426,2013-09-16 14:16:00,
2013-09-16 09:21:00,74.9,62.0,29.38,NNE,15,4.2,7.6,63,-99.99,,,-99.99,WSDL version 426,2013-09-16 14:21:00,
2013-09-16 09:26:00,75.2,61.2,29.38,NNE,33,3.6,9.8,61,-99.99,,,-99.99,WSDL version 426,2013-09-16 14:26:00,
2013-09-16 09:31:00,75.3,60.1,29.41,North,352,4.7,9.8,60,-99.99,,,-99.99,WSDL version 426,2013-09-16 14:31:00,
2013-09-16 09:36:00,75.5,60.2,29.41,NNE,23,5.9,8.7,59,-99.99,,,-99.99,WSDL version 426,2013-09-16 14:36:00,
2013-09-16 09:41:00,75.6,59.8,29.41,NNE,28,5.9,10.7,58,-99.99,,,-99.99,WSDL version 426,2013-09-16 14:41:00,
2013-09-16 09:46:00,75.7,59.9,29.41,NNE,30,3.5,10.7,58,-99.99,,,-99.99,WSDL version 426,2013-09-16 14:46:00,
2013-09-16 09:51:00,75.6,59.3,29.41,NE,34,6.6,8.5,57,-99.99,,,-99.99,WSDL version 426,2013-09-16 14:51:00,
2013-09-16 09:56:00,75.4,59.2,29.41,NNE,20,5.8,9.2,57,-99.99,,,-99.99,WSDL version 426,2013-09-16 14:56:00,
2013-09-16 10:01:00,75.3,59.0,29.41,NNE,25,5.4,10.1,57,-99.99,,,-99.99,WSDL version 426,2013-09-16 15:01:00,
2013-09-16 10:06:00,75.2,59.3,29.41,NNE,25,5.6,10.1,58,-99.99,,,-99.99,WSDL version 426,2013-09-16 15:06:00,
2013-09-16 10:11:00,75.1,59.7,29.41,NNE,31,5.8,9.4,59,-99.99,,,-99.99,WSDL version 426,2013-09-16 15:11:00,
2013-09-16 10:16:00,75.0,59.7,29.41,NNE,25,6.5,10.5,59,-99.99,,,-99.99,WSDL version 426,2013-09-16 15:16:00,
2013-09-16 10:21:00,75.0,60.1,29.41,NE,48,4.7,10.5,60,-99.99,,,-99.99,WSDL version 426,2013-09-16 15:21:00,
2013-09-16 10:26:00,75.1,60.2,29.41,NNE,23,3.8,10.3,60,-99.99,,,-99.99,WSDL version 426,2013-09-16 15:26:00,
2013-09-16 10:31:00,75.1,59.8,29.41,NE,35,4.9,8.5,59,-99.99,,,-99.99,WSDL version 426,2013-09-16 15:31:00,
2013-09-16 10:36:00,75.1,59.8,29.41,NNE,13,4.3,8.5,59,-99.99,,,-99.99,WSDL version 426,2013-09-16 15:36:00,
2013-09-16 10:41:00,75.3,59.9,29.41,NNE,20,5.6,9.4,59,-99.99,,,-99.99,WSDL version 426,2013-09-16 15:41:00,
2013-09-16 10:46:00,75.3,59.4,29.41,NNE,18,6.3,10.1,57,-99.99,,,-99.99,WSDL version 426,2013-09-16 15:46:00,
2013-09-16 10:51:00,75.4,59.6,29.41,NNE,25,5.7,10.1,58,-99.99,,,-99.99,WSDL version 426,2013-09-16 15:51:00,
2013-09-16 10:56:00,75.7,59.9,29.41,NE,40,4.6,9.6,58,-99.99,,,-99.99,WSDL version 426,2013-09-16 15:56:00,
2013-09-16 11:01:00,75.7,59.1,29.41,NNE,25,7.2,13.4,56,-99.99,,,-99.99,WSDL version 426,2013-09-16 16:01:00,
2013-09-16 11:06:00,75.7,58.9,29.41,NE,35,6.0,13.4,56,-99.99,,,-99.99,WSDL version 426,2013-09-16 16:06:00,
2013-09-16 11:11:00,75.6,58.8,29.41,NE,35,3.6,8.5,56,-99.99,,,-99.99,WSDL version 426,2013-09-16 16:11:00,
2013-09-16 11:16:00,75.6,58.8,29.41,NE,48,4.7,7.2,56,-99.99,,,-99.99,WSDL version 426,2013-09-16 16:16:00,
2013-09-16 11:21:00,75.7,58.9,29.41,NNE,33,5.3,7.6,56,-99.99,,,-99.99,WSDL version 426,2013-09-16 16:21:00,
2013-09-16 11:26:00,76.0,59.2,29.41,NE,45,3.9,7.6,56,-99.99,,,-99.99,WSDL version 426,2013-09-16 16:26:00,
2013-09-16 11:31:00,76.4,59.4,29.41,NE,53,6.4,9.8,56,-99.99,,,-99.99,WSDL version 426,2013-09-16 16:31:00,
2013-09-16 11:36:00,77.0,60.0,29.41,NE,37,6.7,10.7,55,-99.99,,,-99.99,WSDL version 426,2013-09-16 16:36:00,
2013-09-16 11:41:00,77.5,60.0,29.41,ENE,65,6.5,11.0,55,-99.99,,,-99.99,WSDL version 426,2013-09-16 16:41:00,
2013-09-16 11:46:00,77.8,59.9,29.41,NE,50,5.9,11.0,53,-99.99,,,-99.99,WSDL version 426,2013-09-16 16:46:00,
2013-09-16 11:51:00,77.9,59.0,29.41,NE,48,6.8,10.3,52,-99.99,,,-99.99,WSDL version 426,2013-09-16 16:51:00,
2013-09-16 11:56:00,78.0,59.0,29.41,NE,40,6.4,10.3,52,-99.99,,,-99.99,WSDL version 426,2013-09-16 16:56:00,
2013-09-16 12:01:00,78.1,58.9,29.41,ENE,73,6.4,12.5,52,-99.99,,,-99.99,WSDL version 426,2013-09-16 17:01:00,
2013-09-16 12:06:00,78.2,58.8,29.41,ENE,68,7.3,12.5,51,-99.99,,,-99.99,WSDL version 426,2013-09-16 17:06:00,
2013-09-16 12:11:00,78.0,58.4,29.41,ENE,76,7.0,10.7,51,-99.99,,,-99.99,WSDL version 426,2013-09-16 17:11:00,
2013-09-16 12:16:00,78.1,58.4,29.41,ENE,65,6.8,10.7,51,-99.99,,,-99.99,WSDL version 426,2013-09-16 17:16:00,
2013-09-16 12:21:00,78.4,58.7,29.41,ENE,62,5.4,10.3,51,-99.99,,,-99.99,WSDL version 426,2013-09-16 17:21:00,
2013-09-16 12:26:00,78.8,58.9,29.41,ENE,68,5.6,9.4,51,-99.99,,,-99.99,WSDL version 426,2013-09-16 17:26:00,
2013-09-16 12:31:00,79.6,59.2,29.38,ENE,60,7.0,11.0,49,-99.99,,,-99.99,WSDL version 426,2013-09-16 17:31:00,
2013-09-16 12:36:00,80.2,58.8,29.38,NE,56,6.8,11.0,47,-99.99,,,-99.99,WSDL version 426,2013-09-16 17:36:00,
2013-09-16 12:41:00,80.9,59.1,29.38,NE,43,5.1,11.0,48,-99.99,,,-99.99,WSDL version 426,2013-09-16 17:41:00,
2013-09-16 12:46:00,81.6,58.6,29.41,East,98,6.2,8.7,44,-99.99,,,-99.99,WSDL version 426,2013-09-16 17:46:00,
2013-09-16 12:51:00,81.5,57.2,29.41,ENE,65,6.2,9.6,43,-99.99,,,-99.99,WSDL version 426,2013-09-16 17:51:00,
2013-09-16 12:56:00,82.0,57.9,29.41,East,88,6.4,10.3,44,-99.99,,,-99.99,WSDL version 426,2013-09-16 17:56:00,
2013-09-16 13:01:00,82.7,57.8,29.38,ENE,70,7.4,10.7,42,-99.99,,,-99.99,WSDL version 426,2013-09-16 18:01:00,
2013-09-16 13:06:00,83.3,57.4,29.38,ENE,73,8.0,10.7,41,-99.99,,,-99.99,WSDL version 426,2013-09-16 18:06:00,
2013-09-16 13:11:00,83.9,57.3,29.38,NE,51,7.0,10.7,40,-99.99,,,-99.99,WSDL version 426,2013-09-16 18:11:00,
2013-09-16 13:16:00,84.7,57.5,29.38,ENE,60,6.3,10.5,39,-99.99,,,-99.99,WSDL version 426,2013-09-16 18:16:00,
2013-09-16 13:21:00,85.3,57.5,29.38,ENE,65,8.4,9.8,39,-99.99,,,-99.99,WSDL version 426,2013-09-16 18:21:00,
2013-09-16 13:26:00,85.9,56.4,29.38,East,88,6.7,10.5,36,-99.99,,,-99.99,WSDL version 426,2013-09-16 18:26:00,
2013-09-16 13:31:00,86.6,56.1,29.38,ENE,60,8.0,11.0,35,-99.99,,,-99.99,WSDL version 426,2013-09-16 18:31:00,
2013-09-16 13:36:00,87.2,56.2,29.38,East,87,5.4,11.0,34,-99.99,,,-99.99,WSDL version 426,2013-09-16 18:36:00,
2013-09-16 13:41:00,87.5,55.4,29.38,East,85,6.1,11.0,34,-99.99,,,-99.99,WSDL version 426,2013-09-16 18:41:00,
2013-09-16 13:46:00,87.7,54.6,29.35,East,96,8.7,12.5,32,-99.99,,,-99.99,WSDL version 426,2013-09-16 18:46:00,
2013-09-16 13:51:00,88.0,54.0,29.35,ENE,60,8.9,13.0,31,-99.99,,,-99.99,WSDL version 426,2013-09-16 18:51:00,
2013-09-16 13:56:00,88.5,53.5,29.35,ENE,59,8.2,13.0,31,-99.99,,,-99.99,WSDL version 426,2013-09-16 18:56:00,
2013-09-16 14:01:00,88.8,53.4,29.35,East,88,8.0,12.1,29,-99.99,,,-99.99,WSDL version 426,2013-09-16 19:01:00,
2013-09-16 14:06:00,88.1,52.5,29.35,ESE,103,8.9,11.0,30,-99.99,,,-99.99,WSDL version 426,2013-09-16 19:06:00,
2013-09-16 14:11:00,88.4,52.9,29.35,ENE,65,6.8,14.3,30,-99.99,,,-99.99,WSDL version 426,2013-09-16 19:11:00,
2013-09-16 14:16:00,88.8,52.8,29.35,ESE,108,6.4,14.3,30,-99.99,,,-99.99,WSDL version 426,2013-09-16 19:16:00,
2013-09-16 14:21:00,89.4,53.4,29.35,East,93,7.3,13.2,29,-99.99,,,-99.99,WSDL version 426,2013-09-16 19:21:00,
2013-09-16 14:26:00,89.6,53.0,29.35,ESE,108,8.2,13.2,29,-99.99,,,-99.99,WSDL version 426,2013-09-16 19:26:00,
2013-09-16 14:31:00,89.8,53.3,29.35,ESE,107,6.4,11.0,29,-99.99,,,-99.99,WSDL version 426,2013-09-16 19:31:00,
2013-09-16 14:36:00,90.2,53.2,29.35,ESE,108,8.1,12.8,28,-99.99,,,-99.99,WSDL version 426,2013-09-16 19:36:00,
2013-09-16 14:41:00,89.7,52.3,29.35,ENE,70,5.9,12.8,28,-99.99,,,-99.99,WSDL version 426,2013-09-16 19:41:00,
2013-09-16 14:46:00,89.9,52.5,29.32,ENE,73,6.8,10.1,28,-99.99,,,-99.99,WSDL version 426,2013-09-16 19:46:00,
2013-09-16 14:51:00,90.3,52.8,29.32,East,98,6.8,11.4,28,-99.99,,,-99.99,WSDL version 426,2013-09-16 19:51:00,
2013-09-16 14:56:00,90.5,53.0,29.32,ESE,115,4.6,12.1,28,-99.99,,,-99.99,WSDL version 426,2013-09-16 19:56:00,
2013-09-16 15:01:00,91.2,53.4,29.32,East,83,7.0,12.1,27,-99.99,,,-99.99,WSDL version 426,2013-09-16 20:01:00,
2013-09-16 15:06:00,91.4,52.8,29.32,East,87,5.2,10.7,27,-99.99,,,-99.99,WSDL version 426,2013-09-16 20:06:00,
2013-09-16 15:11:00,91.9,52.8,29.32,East,98,6.5,10.7,26,-99.99,,,-99.99,WSDL version 426,2013-09-16 20:11:00,
2013-09-16 15:16:00,91.7,52.8,29.32,East,93,5.9,12.5,27,-99.99,,,-99.99,WSDL version 426,2013-09-16 20:16:00,
2013-09-16 15:21:00,91.0,52.6,29.32,East,88,7.3,12.5,27,-99.99,,,-99.99,WSDL version 426,2013-09-16 20:21:00,
2013-09-16 15:26:00,90.6,52.5,29.32,East,95,6.3,11.0,28,-99.99,,,-99.99,WSDL version 426,2013-09-16 20:26:00,
2013-09-16 15:31:00,91.2,53.3,29.32,ESE,107,6.2,8.7,27,-99.99,,,-99.99,WSDL version 426,2013-09-16 20:31:00,
2013-09-16 15:36:00,91.6,52.9,29.32,NE,50,6.2,10.1,27,-99.99,,,-99.99,WSDL version 426,2013-09-16 20:36:00,
2013-09-16 15:41:00,92.2,53.5,29.32,East,82,6.0,10.1,27,-99.99,,,-99.99,WSDL version 426,2013-09-16 20:41:00,
2013-09-16 15:46:00,92.3,53.5,29.32,ENE,60,5.0,9.8,27,-99.99,,,-99.99,WSDL version 426,2013-09-16 20:46:00,
2013-09-16 15:51:00,92.4,53.6,29.32,ENE,58,5.8,10.3,27,-99.99,,,-99.99,WSDL version 426,2013-09-16 20:51:00,
2013-09-16 15:56:00,92.9,53.8,29.32,NE,56,4.6,10.3,27,-99.99,,,-99.99,WSDL version 426,2013-09-16 20:56:00,
2013-09-16 16:01:00,94.1,52.3,29.32,ESE,105,4.1,7.6,23,-99.99,,,-99.99,WSDL version 426,2013-09-16 21:01:00,
2013-09-16 16:06:00,94.1,51.2,29.32,SE,132,4.6,7.6,25,-99.99,,,-99.99,WSDL version 426,2013-09-16 21:06:00,
2013-09-16 16:11:00,94.0,51.3,29.32,ENE,68,4.3,8.1,23,-99.99,,,-99.99,WSDL version 426,2013-09-16 21:11:00,
2013-09-16 16:16:00,92.9,50.6,29.32,East,90,4.7,8.1,24,-99.99,,,-99.99,WSDL version 426,2013-09-16 21:16:00,
2013-09-16 16:21:00,92.1,50.2,29.32,NE,38,4.9,7.2,24,-99.99,,,-99.99,WSDL version 426,2013-09-16 21:21:00,
2013-09-16 16:26:00,92.2,50.0,29.32,East,93,3.8,7.2,24,-99.99,,,-99.99,WSDL version 426,2013-09-16 21:26:00,
2013-09-16 16:31:00,92.4,50.8,29.32,NE,45,3.1,6.9,25,-99.99,,,-99.99,WSDL version 426,2013-09-16 21:31:00,
2013-09-16 16:36:00,92.4,51.9,29.32,ENE,63,4.2,8.1,26,-99.99,,,-99.99,WSDL version 426,2013-09-16 21:36:00,
2013-09-16 16:41:00,92.7,51.0,29.32,East,84,3.4,8.5,24,-99.99,,,-99.99,WSDL version 426,2013-09-16 21:41:00,
2013-09-16 16:46:00,93.3,50.2,29.32,NE,51,5.7,10.5,23,-99.99,,,-99.99,WSDL version 426,2013-09-16 21:46:00,
2013-09-16 16:51:00,93.7,50.6,29.32,ENE,70,7.1,10.5,23,-99.99,,,-99.99,WSDL version 426,2013-09-16 21:51:00,
2013-09-16 16:56:00,94.2,50.3,29.32,NNE,33,7.1,11.2,22,-99.99,,,-99.99,WSDL version 426,2013-09-16 21:56:00,
2013-09-16 17:01:00,94.3,49.9,29.32,NE,51,3.4,11.2,22,-99.99,,,-99.99,WSDL version 426,2013-09-16 22:01:00,
2013-09-16 17:06:00,95.8,49.9,29.32,NE,39,6.4,9.2,21,-99.99,,,-99.99,WSDL version 426,2013-09-16 22:06:00,
2013-09-16 17:11:00,96.1,49.2,29.32,NE,50,7.7,10.7,21,-99.99,,,-99.99,WSDL version 426,2013-09-16 22:11:00,
2013-09-16 17:16:00,95.5,48.1,29.29,NE,39,6.7,10.7,20,-99.99,,,-99.99,WSDL version 426,2013-09-16 22:16:00,
2013-09-16 17:21:00,94.4,47.9,29.29,NE,43,6.4,10.1,20,-99.99,,,-99.99,WSDL version 426,2013-09-16 22:21:00,
2013-09-16 17:26:00,94.8,48.0,29.29,NE,48,8.4,11.9,20,-99.99,,,-99.99,WSDL version 426,2013-09-16 22:26:00,
2013-09-16 17:31:00,95.0,48.1,29.32,NE,35,7.3,11.9,20,-99.99,,,-99.99,WSDL version 426,2013-09-16 22:31:00,
2013-09-16 17:36:00,94.5,48.6,29.32,ENE,63,5.0,10.3,21,-99.99,,,-99.99,WSDL version 426,2013-09-16 22:36:00,
2013-09-16 17:41:00,93.1,47.6,29.32,NE,45,6.8,9.6,22,-99.99,,,-99.99,WSDL version 426,2013-09-16 22:41:00,
2013-09-16 17:46:00,91.9,48.2,29.32,NE,35,7.9,11.2,23,-99.99,,,-99.99,WSDL version 426,2013-09-16 22:46:00,
2013-09-16 17:51:00,90.6,49.1,29.32,NE,34,7.9,11.2,25,-99.99,,,-99.99,WSDL version 426,2013-09-16 22:51:00,
2013-09-16 17:56:00,90.0,49.7,29.32,NE,55,7.6,12.1,26,-99.99,,,-99.99,WSDL version 426,2013-09-16 22:56:00,
2013-09-16 18:01:00,89.9,50.5,29.29,NE,48,6.1,12.1,26,-99.99,,,-99.99,WSDL version 426,2013-09-16 23:01:00,
2013-09-16 18:06:00,90.4,51.3,29.29,NE,43,6.4,10.1,27,-99.99,,,-99.99,WSDL version 426,2013-09-16 23:06:00,
2013-09-16 18:11:00,90.1,51.7,29.29,NE,45,5.4,10.1,27,-99.99,,,-99.99,WSDL version 426,2013-09-16 23:11:00,
2013-09-16 18:16:00,89.5,51.6,29.29,NE,45,7.0,8.1,28,-99.99,,,-99.99,WSDL version 426,2013-09-16 23:16:00,
2013-09-16 18:21:00,88.4,51.2,29.29,NNE,28,7.3,10.3,28,-99.99,,,-99.99,WSDL version 426,2013-09-16 23:21:00,
2013-09-16 18:26:00,87.4,51.0,29.29,NE,39,7.0,11.0,29,-99.99,,,-99.99,WSDL version 426,2013-09-16 23:26:00,
2013-09-16 18:31:00,86.6,50.6,29.29,NE,45,5.5,11.0,29,-99.99,,,-99.99,WSDL version 426,2013-09-16 23:31:00,
2013-09-16 18:36:00,85.9,50.6,29.29,NE,45,4.9,8.5,30,-99.99,,,-99.99,WSDL version 426,2013-09-16 23:36:00,
2013-09-16 18:41:00,86.0,51.0,29.29,NE,40,4.7,8.1,30,-99.99,,,-99.99,WSDL version 426,2013-09-16 23:41:00,
2013-09-16 18:46:00,85.9,51.2,29.29,NE,50,4.8,8.1,31,-99.99,,,-99.99,WSDL version 426,2013-09-16 23:46:00,
2013-09-16 18:51:00,85.7,51.7,29.29,ENE,59,6.2,8.1,31,-99.99,,,-99.99,WSDL version 426,2013-09-16 23:51:00,
2013-09-16 18:56:00,85.0,51.1,29.29,NE,55,5.7,8.7,31,-99.99,,,-99.99,WSDL version 426,2013-09-16 23:56:00,
2013-09-16 19:01:00,84.7,51.5,29.29,ENE,59,4.0,8.7,32,-99.99,,,-99.99,WSDL version 426,2013-09-17 00:01:00,
2013-09-16 19:06:00,84.7,51.6,29.29,NE,45,4.4,9.4,32,-99.99,,,-99.99,WSDL version 426,2013-09-17 00:06:00,
2013-09-16 19:11:00,84.5,51.5,29.29,ENE,59,4.8,9.4,32,-99.99,,,-99.99,WSDL version 426,2013-09-17 00:11:00,
2013-09-16 19:16:00,83.7,50.9,29.29,ENE,63,4.4,7.8,33,-99.99,,,-99.99,WSDL version 426,2013-09-17 00:16:00,
2013-09-16 19:21:00,83.6,51.5,29.29,NE,55,4.5,7.8,33,-99.99,,,-99.99,WSDL version 426,2013-09-17 00:21:00,
2013-09-16 19:26:00,83.7,51.8,29.29,NE,48,5.9,7.4,34,-99.99,,,-99.99,WSDL version 426,2013-09-17 00:26:00,
2013-09-16 19:31:00,83.4,53.6,29.29,NE,48,6.0,8.7,37,-99.99,,,-99.99,WSDL version 426,2013-09-17 00:31:00,
2013-09-16 19:36:00,82.8,54.1,29.29,NE,53,5.6,10.1,38,-99.99,,,-99.99,WSDL version 426,2013-09-17 00:36:00,
2013-09-16 19:41:00,82.2,54.6,29.29,NE,55,4.7,10.1,40,-99.99,,,-99.99,WSDL version 426,2013-09-17 00:41:00,
2013-09-16 19:46:00,82.2,56.0,29.29,ENE,59,5.1,8.5,41,-99.99,,,-99.99,WSDL version 426,2013-09-17 00:46:00,
2013-09-16 19:51:00,82.1,56.1,29.29,NE,55,5.8,8.5,41,-99.99,,,-99.99,WSDL version 426,2013-09-17 00:51:00,
2013-09-16 19:56:00,82.0,56.0,29.29,NE,45,5.7,8.9,41,-99.99,,,-99.99,WSDL version 426,2013-09-17 00:56:00,
2013-09-16 20:01:00,81.3,55.5,29.29,NE,51,5.8,8.9,41,-99.99,,,-99.99,WSDL version 426,2013-09-17 01:01:00,
2013-09-16 20:06:00,80.8,55.5,29.29,ENE,68,7.1,10.7,42,-99.99,,,-99.99,WSDL version 426,2013-09-17 01:06:00,
2013-09-16 20:11:00,80.7,55.5,29.29,NE,53,5.3,11.4,42,-99.99,,,-99.99,WSDL version 426,2013-09-17 01:11:00,
2013-09-16 20:16:00,80.8,55.6,29.29,ENE,65,5.6,11.4,42,-99.99,,,-99.99,WSDL version 426,2013-09-17 01:16:00,
2013-09-16 20:21:00,80.5,55.3,29.29,NE,45,4.8,9.8,42,-99.99,,,-99.99,WSDL version 426,2013-09-17 01:21:00,
2013-09-16 20:26:00,79.9,55.8,29.29,NE,38,6.0,12.5,44,-99.99,,,-99.99,WSDL version 426,2013-09-17 01:26:00,
2013-09-16 20:31:00,79.9,56.1,29.32,NE,53,5.5,12.5,44,-99.99,,,-99.99,WSDL version 426,2013-09-17 01:31:00,
2013-09-16 20:36:00,80.1,56.2,29.32,NE,53,5.7,8.5,44,-99.99,,,-99.99,WSDL version 426,2013-09-17 01:36:00,
2013-09-16 20:41:00,79.8,56.0,29.32,NE,38,5.9,8.5,44,-99.99,,,-99.99,WSDL version 426,2013-09-17 01:41:00,
2013-09-16 20:46:00,79.7,55.9,29.32,NE,39,5.3,8.7,44,-99.99,,,-99.99,WSDL version 426,2013-09-17 01:46:00,
2013-09-16 20:51:00,79.7,55.9,29.32,NNE,30,3.1,8.7,44,-99.99,,,-99.99,WSDL version 426,2013-09-17 01:51:00,
2013-09-16 20:56:00,79.7,55.9,29.32,NE,35,4.2,7.8,44,-99.99,,,-99.99,WSDL version 426,2013-09-17 01:56:00,
2013-09-16 21:01:00,79.5,55.7,29.32,ENE,60,6.1,8.5,44,-99.99,,,-99.99,WSDL version 426,2013-09-17 02:01:00,
2013-09-16 21:06:00,79.5,55.7,29.32,NE,55,5.1,8.5,44,-99.99,,,-99.99,WSDL version 426,2013-09-17 02:06:00,
2013-09-16 21:11:00,79.1,55.3,29.32,NE,45,4.1,7.6,44,-99.99,,,-99.99,WSDL version 426,2013-09-17 02:11:00,
2013-09-16 21:16:00,78.8,55.7,29.32,NE,53,3.7,6.0,45,-99.99,,,-99.99,WSDL version 426,2013-09-17 02:16:00,
2013-09-16 21:21:00,79.1,55.9,29.32,NE,53,3.8,5.6,45,-99.99,,,-99.99,WSDL version 426,2013-09-17 02:21:00,
2013-09-16 21:26:00,79.0,55.9,29.32,NE,43,4.8,6.0,45,-99.99,,,-99.99,WSDL version 426,2013-09-17 02:26:00,
2013-09-16 21:31:00,79.0,55.9,29.32,NE,42,5.5,7.8,45,-99.99,,,-99.99,WSDL version 426,2013-09-17 02:31:00,
2013-09-16 21:36:00,78.5,55.5,29.32,NE,45,5.2,7.8,45,-99.99,,,-99.99,WSDL version 426,2013-09-17 02:36:00,
2013-09-16 21:41:00,78.0,56.0,29.32,NE,43,5.1,8.5,47,-99.99,,,-99.99,WSDL version 426,2013-09-17 02:41:00,
2013-09-16 21:46:00,78.2,56.4,29.32,NNE,31,3.9,8.5,47,-99.99,,,-99.99,WSDL version 426,2013-09-17 02:46:00,
2013-09-16 21:51:00,78.3,56.4,29.32,NE,40,3.9,6.7,47,-99.99,,,-99.99,WSDL version 426,2013-09-17 02:51:00,
2013-09-16 21:56:00,78.1,56.2,29.32,ENE,59,5.3,7.2,47,-99.99,,,-99.99,WSDL version 426,2013-09-17 02:56:00,
2013-09-16 22:01:00,77.4,55.7,29.32,NE,53,4.5,7.2,47,-99.99,,,-99.99,WSDL version 426,2013-09-17 03:01:00,
2013-09-16 22:06:00,77.2,56.6,29.32,NE,37,5.4,7.8,50,-99.99,,,-99.99,WSDL version 426,2013-09-17 03:06:00,
2013-09-16 22:11:00,77.4,57.3,29.32,NNE,25,3.6,7.8,50,-99.99,,,-99.99,WSDL version 426,2013-09-17 03:11:00,
2013-09-16 22:16:00,77.3,57.1,29.32,NNE,28,5.3,7.6,50,-99.99,,,-99.99,WSDL version 426,2013-09-17 03:16:00,
2013-09-16 22:21:00,76.8,56.7,29.32,NE,45,4.5,7.6,50,-99.99,,,-99.99,WSDL version 426,2013-09-17 03:21:00,
2013-09-16 22:26:00,76.4,57.2,29.32,NE,53,5.0,6.5,53,-99.99,,,-99.99,WSDL version 426,2013-09-17 03:26:00,
2013-09-16 22:31:00,76.6,58.2,29.32,NE,37,4.5,6.5,53,-99.99,,,-99.99,WSDL version 426,2013-09-17 03:31:00,
2013-09-16 22:36:00,76.8,58.3,29.32,NNE,33,2.5,6.3,52,-99.99,,,-99.99,WSDL version 426,2013-09-17 03:36:00,
2013-09-16 22:41:00,76.5,57.8,29.32,NNE,14,3.1,5.8,53,-99.99,,,-99.99,WSDL version 426,2013-09-17 03:41:00,
2013-09-16 22:46:00,76.0,57.8,29.32,North,10,2.7,4.3,53,-99.99,,,-99.99,WSDL version 426,2013-09-17 03:46:00,
2013-09-16 22:51:00,75.8,57.9,29.32,North,353,2.7,4.3,56,-99.99,,,-99.99,WSDL version 426,2013-09-17 03:51:00,
2013-09-16 22:56:00,76.1,59.3,29.32,NNE,20,2.1,3.8,56,-99.99,,,-99.99,WSDL version 426,2013-09-17 03:56:00,
2013-09-16 23:01:00,76.2,58.7,29.32,North,358,2.3,3.4,54,-99.99,,,-99.99,WSDL version 426,2013-09-17 04:01:00,
2013-09-16 23:02:00,76.1,58.5,29.32,North,360,2.3,3.4,54,-99.99,,,-99.99,WSDL version 426,2013-09-17 04:02:00,
2013-09-16 23:03:00,76.0,58.2,29.32,North,360,1.8,3.4,54,-99.99,,,-99.99,WSDL version 426,2013-09-17 04:03:00,
2013-09-16 23:04:00,75.8,58.0,29.32,NNE,13,1.3,3.4,54,-99.99,,,-99.99,WSDL version 426,2013-09-17 04:04:00,
2013-09-16 23:05:00,75.7,57.9,29.32,NNE,23,1.4,3.4,54,-99.99,,,-99.99,WSDL version 426,2013-09-17 04:05:00,
2013-09-16 23:07:00,75.6,57.8,29.32,North,10,1.4,3.4,54,-99.99,,,-99.99,WSDL version 426,2013-09-17 04:07:00,
2013-09-16 23:12:00,75.3,57.6,29.32,NNE,25,2.2,3.1,55,-99.99,,,-99.99,WSDL version 426,2013-09-17 04:12:00,
2013-09-16 23:17:00,75.0,57.8,29.35,NNE,31,1.8,3.4,55,-99.99,,,-99.99,WSDL version 426,2013-09-17 04:17:00,
2013-09-16 23:22:00,74.9,58.4,29.35,NE,35,2.2,3.4,59,-99.99,,,-99.99,WSDL version 426,2013-09-17 04:22:00,
2013-09-16 23:27:00,75.3,60.0,29.35,NE,51,2.5,3.1,58,-99.99,,,-99.99,WSDL version 426,2013-09-17 04:27:00,
2013-09-16 23:32:00,75.1,59.2,29.32,NE,35,2.2,4.3,58,-99.99,,,-99.99,WSDL version 426,2013-09-17 04:32:00,
2013-09-16 23:37:00,74.6,58.6,29.32,ENE,59,1.8,4.3,57,-99.99,,,-99.99,WSDL version 426,2013-09-17 04:37:00,
2013-09-16 23:42:00,74.3,58.5,29.32,NE,50,3.1,4.3,58,-99.99,,,-99.99,WSDL version 426,2013-09-17 04:42:00,
2013-09-16 23:47:00,74.3,60.4,29.32,NNE,20,2.6,4.3,62,-99.99,,,-99.99,WSDL version 426,2013-09-17 04:47:00,
2013-09-16 23:52:00,74.7,60.5,29.32,NE,34,2.2,3.1,60,-99.99,,,-99.99,WSDL version 426,2013-09-17 04:52:00,
2013-09-16 23:57:00,74.3,59.5,29.32,NNE,23,1.6,3.1,59,-99.99,,,-99.99,WSDL version 426,2013-09-17 04:57:00,